ラ・サグラ彗星

279P/La Sagra (2016)

English version
Home page
Updated on March 3, 2018

---------------------------------------------------------------------

・ プロフィール

・ 写真集

・ 軌道要素

Epoch 2016 July 31.0 TT = JDT 2457600.5
T 2016 July 14.54916 TT                                 MPCW
q   2.1592089            (2000.0)            P               Q
n   0.14545053     Peri.    5.87658     +0.99047908     +0.13606647
a   3.5809026      Node   346.25012     -0.12961553     +0.87059135
e   0.3970210      Incl.    5.04641     -0.04637905     +0.47281774
P   6.78
From 134 observations 2002 July 11-2016 May 4, mean residual 0".5.

・ 光度変化

        m1 = 15.2 + 5 logΔ + 10.0 log r

---------------------------------------------------------------------

軌道要素はM.P.E.C. 2016-K18に掲載されたものです。
光度グラフはComet for Windowsで作成したものです。

---------------------------------------------------------------------

Copyright(C) Seiichi Yoshida (comet@aerith.net). All rights reserved.